Погода в Хайыракане

Россия / Республика Тыва     51°33′50″N   93°08′04″E
темп.,
°C
ветер,
м/с
пор.,
м/с
влажн.,
%
обл.,
%
осадки,
мм/ч
давл.,
гПа
погр.,
м
17 сентября, пт
пт1701:00+9ююв116285 0.0 101211
04:00+10ююз1160100 0.0 101210
07:00+9ююз116290 0.0 101310
10:00+14ссз104774 0.0 1012395
13:00+18ссз11375 0.0 1010783
16:00+20зсз22310 0.0 1008935
19:00+14ююз00484 0.0 100911
22:00+12ю22569 0.0 101012
18 сентября, сб
сб1801:00+11ююв22589 0.0 100912
04:00+10юв126065 0.0 100911
07:00+9вюв11615 0.0 100912
10:00+15с114238 0.0 1009495
13:00+18зсз2236100 0.0 1007616
16:00+19з1135100 0.0 1006436
19:00+13юз115313 0.0 100811
22:00+11ююз226150 0.0 101017
19 сентября, вс
вс1901:00+10ю1164100 0.0 101011
04:00+9юв11648 0.0 101110
07:00+9в22645 0.0 101114
10:00+16св334116 0.0 1009524
13:00+21св343064 0.0 1006930
16:00+24зсз2424100 0.0 10031575
19:00+16ю22435 0.0 100313
22:00+13ююз2243100 0.0 100314
20 сентября, пн
пн2001:00+11ю12465 0.0 100311
04:00+10ююв224795 0.0 100111
07:00+10в334855 0.0 100033
10:00+14з101146100 0.1 1002919
13:00+7всв4975100 2.5 1010613
16:00+11св245361 0.1 10101011
19:00+8в336134 0.1 101138
22:00+5в116936 0.0 101313
21 сентября, вт
вт2101:00+5юв2271100 0.2 101337
04:00+4ююв227692 0.1 101333
07:00+2в11768 0.1 101512
10:00+7с2250100 0.0 10151093
13:00+8с4642100 0.1 10161843
16:00+7с684696 0.4 10181583
19:00+5ссз2256100 0.4 102296
22:00+2ююв218193 0.6 1026168